Wind_Speed
9 8 8 8 6 5 5 6 9 9 8 7 7 6 6 5 4 3 2 0 1 1 1 1 2 3 4 5 5 6 6 6 6 6 6 5 5 4 3 2 1 2 4 5 7 8 10 12 13
9 7 7 7 6 6 7 9 10 9 9 8 7 6 6 5 4 3 2 1 2 3 3 3 2 1 1 2 2 3 4 4 4 4 5 5 4 4 3 3 2 0 1 3 4 5 6 8 9
8 6 6 6 6 6 8 10 10 10 10 9 8 7 7 5 4 3 3 3 3 4 4 5 5 4 3 3 2 2 1 1 2 2 2 3 3 3 3 3 2 1 1 1 2 3 4 5 5
5 5 5 5 6 6 8 9 9 10 10 9 9 8 7 5 4 4 5 5 5 5 6 6 7 7 7 7 6 5 4 3 2 2 1 0 1 1 2 2 2 2 2 2 1 1 2 3 3
4 3 6 6 7 7 7 9 9 9 9 10 10 8 8 6 5 5 6 6 6 6 7 8 9 9 10 10 10 9 8 7 6 6 5 4 3 2 1 0 0 1 2 2 2 1 1 1 1
3 5 6 7 8 7 7 8 10 10 10 10 11 10 9 9 7 7 7 8 8 8 8 9 10 11 12 13 13 13 13 12 11 10 9 8 7 6 5 4 3 2 1 1 1 1 1 0 1
4 5 7 9 8 7 7 10 12 14 14 13 13 13 12 11 10 9 8 9 10 10 10 11 12 13 14 15 16 16 16 15 15 14 13 12 11 10 9 8 7 5 4 3 2 1 0 0 1
6 7 9 9 9 9 9 11 13 15 17 16 16 16 15 14 14 14 13 12 12 13 14 15 15 16 17 18 19 19 19 19 18 17 16 15 14 14 13 12 11 9 8 7 5 4 2 1 1
9 9 10 10 11 11 12 14 16 18 19 19 20 19 19 18 18 18 18 17 16 16 17 18 19 19 19 20 20 21 22 22 22 20 20 19 18 17 16 15 14 13 12 11 9 8 6 4 3
10 11 12 14 14 16 17 17 19 21 22 23 23 23 23 23 23 23 22 22 22 21 21 21 22 22 22 22 21 22 23 23 23 23 23 22 22 21 20 19 18 17 15 14 13 12 10 9 7
12 13 13 15 17 20 21 21 22 24 26 26 26 26 26 26 27 27 27 28 28 27 27 27 26 26 26 26 25 24 25 25 24 24 25 26 26 25 24 23 22 21 20 19 17 16 14 13 11
14 16 17 18 21 23 24 24 25 26 27 28 28 29 29 29 29 30 31 32 33 33 33 33 33 32 31 31 30 29 28 28 27 27 28 27 27 28 27 27 27 25 24 23 22 20 19 17 15
17 19 20 21 23 24 25 25 26 27 28 29 30 31 31 31 32 32 33 34 35 36 37 38 38 38 37 36 35 34 33 32 31 29 30 28 29 29 30 29 28 28 28 27 25 24 22 21 19
19 20 21 22 23 23 24 25 27 27 29 31 32 33 33 33 33 33 34 35 36 37 38 39 40 40 40 40 40 39 38 37 35 34 31 31 31 30 30 31 30 29 29 29 28 27 25 24 23
20 21 22 23 23 24 25 27 28 29 31 33 33 34 34 34 33 33 34 35 36 36 37 38 38 39 40 41 42 42 42 41 40 39 38 36 35 33 33 32 32 31 30 29 30 29 28 27 26
22 22 23 25 26 26 27 27 27 29 30 31 31 31 32 32 32 32 33 33 34 35 36 36 37 37 38 38 39 39 40 40 40 40 40 40 40 39 38 35 34 34 34 34 33 31 30 30 28
22 23 24 26 27 28 27 27 27 28 29 30 29 29 29 30 30 30 30 31 31 33 34 35 35 36 36 36 37 38 38 39 39 39 39 40 40 41 40 40 38 36 35 35 35 34 32 31 30
21 23 24 27 28 28 27 26 26 26 27 28 28 28 28 28 28 28 28 28 28 29 30 31 33 34 34 35 36 37 38 38 38 38 38 39 39 40 41 41 40 39 37 36 36 34 33 32 32
19 21 23 26 27 27 26 25 25 25 24 25 25 26 26 27 26 25 25 25 26 27 27 28 29 30 31 33 33 34 36 37 37 38 38 38 38 38 39 40 40 40 39 37 37 35 33 32 32
17 20 22 24 25 25 25 23 22 20 20 21 22 23 23 23 23 23 24 24 25 25 25 25 24 25 26 27 29 31 33 35 37 38 38 38 38 38 38 40 40 40 40 40 38 37 35 33 31
17 20 22 23 23 23 22 20 17 17 17 18 19 20 21 21 21 21 21 21 22 22 21 21 21 22 23 25 26 28 30 32 34 36 37 38 38 38 37 38 40 40 41 40 39 39 37 35 34
16 19 20 21 21 21 20 17 16 17 18 19 19 19 19 19 19 19 19 18 18 18 18 18 18 19 20 22 23 25 27 28 30 32 34 36 36 37 37 38 39 40 41 41 40 40 40 38 36
15 16 17 18 18 17 16 15 15 17 19 20 19 19 19 20 19 18 18 17 17 17 17 16 16 16 17 18 19 20 21 22 24 27 29 32 33 35 35 37 38 39 41 41 41 41 41 39 38
13 15 16 16 15 13 13 14 15 18 19 19 19 19 20 19 19 18 19 18 18 18 18 17 17 17 16 16 15 15 16 17 19 21 23 25 28 30 32 34 36 38 39 41 42 42 41 40 40
12 13 14 14 13 12 12 13 15 16 17 18 18 18 19 19 19 19 19 19 19 20 19 19 18 18 17 16 14 13 13 14 14 15 17 18 21 24 27 29 31 35 37 39 41 42 42 41 41
12 13 14 13 13 12 12 12 14 14 15 16 17 18 18 19 19 19 19 19 19 20 20 20 20 19 18 17 15 14 14 14 13 12 12 13 15 16 19 22 26 30 34 38 40 41 42 41 40
12 13 13 13 13 12 11 11 13 13 14 15 16 18 18 19 19 19 19 19 20 20 20 20 21 21 20 18 16 16 15 15 14 12 10 9 9 11 13 16 19 23 28 33 38 41 41 41 40
12 13 14 14 13 12 12 12 13 13 14 15 17 18 18 19 19 20 19 20 20 20 20 20 21 21 20 20 18 18 17 16 15 13 12 10 8 7 8 11 14 18 22 27 32 36 40 40 39
11 12 13 13 13 13 12 13 13 13 15 16 17 18 18 19 19 19 19 20 20 21 21 21 21 21 21 21 20 19 18 18 16 15 13 11 9 8 7 7 9 11 16 20 25 30 35 36 37
11 12 13 13 13 13 12 12 13 14 15 16 17 18 19 19 19 19 20 20 21 21 21 22 22 22 22 22 21 20 19 19 18 16 15 13 12 10 8 7 7 8 10 14 19 24 29 32 34
Wind_Direction
70 61 47 32 17 16 17 32 40 38 40 38 28 12 9 10 357 327 337 201 251 257 210 125 106 97 91 87 81 76 73 74 74 74 75 76 76 75 75 78 142 215 223 227 229 232 235 235 236
67 54 39 18 16 28 34 42 41 32 30 30 24 13 8 7 353 328 317 273 270 271 266 252 236 197 150 123 104 92 85 81 78 77 77 76 75 74 72 68 69 114 227 232 236 238 235 233 235
63 45 29 6 23 41 40 42 39 29 26 19 11 10 8 5 350 319 303 283 276 272 268 266 261 254 243 233 221 200 165 126 102 91 82 74 71 72 71 68 65 55 21 302 255 243 235 230 234
52 32 2 355 26 28 28 31 29 22 18 7 359 1 359 358 341 315 302 290 280 272 268 266 264 261 256 251 246 241 238 236 234 230 222 243 36 56 66 64 57 44 24 9 352 280 248 235 229
28 5 332 347 2 5 14 9 9 7 358 350 348 346 347 348 335 317 304 298 290 282 275 270 266 262 259 256 252 250 249 249 250 252 251 251 258 264 265 272 355 39 44 32 17 2 325 233 195
348 336 332 340 339 342 353 346 340 338 341 337 333 331 331 331 327 318 306 300 293 284 277 269 265 261 259 257 256 255 254 253 254 256 256 254 253 254 257 256 254 254 270 360 15 20 28 75 170
284 305 310 317 318 316 324 328 326 324 326 325 320 319 319 315 313 307 299 293 289 284 277 270 263 258 255 255 254 254 254 254 254 254 256 256 256 254 254 253 251 250 250 252 258 294 357 49 174
294 294 298 300 303 294 308 316 315 315 316 314 311 310 308 306 304 298 290 283 280 278 275 271 267 261 257 254 253 251 251 251 252 253 254 255 257 256 254 253 250 249 250 249 246 245 245 228 206
294 295 295 294 295 291 304 307 305 307 306 305 305 304 300 298 296 294 288 282 275 271 270 269 268 264 262 260 256 254 253 252 250 251 252 254 255 256 255 254 252 249 248 247 245 243 241 236 225
293 293 294 294 291 297 301 300 301 302 301 300 298 297 294 291 289 286 283 280 276 271 267 265 264 263 262 262 262 259 258 256 253 249 249 251 253 254 255 254 253 251 248 245 243 242 241 238 233
290 291 290 291 294 299 302 303 303 301 299 297 296 294 291 287 284 280 277 274 273 271 268 266 264 261 260 260 260 261 261 259 257 255 254 252 251 252 254 252 252 252 248 245 243 241 241 239 236
291 292 292 296 300 302 304 304 302 299 297 296 294 292 289 286 282 278 275 272 270 268 267 264 262 261 259 258 257 258 259 261 261 259 257 255 253 251 252 251 250 250 248 246 243 240 239 238 237
294 296 299 302 303 304 304 301 300 298 299 298 296 293 290 288 285 282 278 275 272 269 267 265 263 261 260 259 258 257 257 259 259 261 261 258 256 254 253 253 254 251 249 247 244 240 238 238 236
298 301 304 304 302 300 300 300 299 299 302 301 299 296 292 290 287 284 281 278 274 271 268 266 265 264 262 261 260 259 258 257 257 259 261 260 260 258 257 253 254 252 249 247 244 240 239 238 237
300 303 303 299 298 300 301 301 299 302 304 302 300 296 293 290 287 284 282 279 277 274 272 270 269 268 267 265 264 263 262 260 258 258 259 260 261 261 260 257 254 252 250 249 246 243 239 238 237
302 302 300 300 303 306 308 309 309 311 310 308 306 303 299 294 290 286 283 280 278 276 274 273 272 270 269 268 267 266 265 263 261 259 258 258 259 260 261 260 257 255 253 252 250 248 244 239 236
301 304 307 308 312 316 317 317 316 316 316 314 312 308 305 301 297 293 289 285 282 279 277 275 274 273 272 271 269 268 267 265 263 260 258 257 257 258 258 259 258 257 256 255 254 250 247 243 239
306 310 312 313 315 317 317 317 318 319 318 315 313 311 310 307 303 298 294 291 287 284 281 278 276 273 272 271 270 269 268 266 265 263 260 259 258 257 257 257 257 256 256 256 255 252 249 246 241
311 313 312 312 313 314 315 317 318 319 317 314 313 314 313 312 309 305 301 298 294 291 288 285 281 277 274 272 271 269 268 267 266 264 263 261 258 256 255 255 254 254 254 254 254 252 250 246 243
313 312 311 312 313 314 317 320 322 322 321 319 319 319 317 316 316 313 309 306 304 299 295 291 286 282 278 276 274 272 270 268 266 265 263 262 259 257 255 253 253 252 251 250 251 249 249 247 246
314 313 315 316 317 319 322 328 332 334 335 334 332 330 329 328 326 323 320 318 314 310 306 301 295 290 286 283 280 277 274 272 268 265 263 262 260 258 255 252 250 250 248 247 246 246 244 245 245
317 319 321 323 324 324 327 334 340 345 350 352 349 346 345 345 344 342 340 336 333 329 323 315 309 302 297 292 287 283 280 276 271 268 265 263 261 257 255 252 249 248 247 245 244 242 242 242 242
325 328 330 331 330 327 333 342 354 359 2 2 1 0 359 358 358 357 355 352 349 346 342 337 331 324 316 308 301 295 289 283 276 272 267 263 260 257 254 252 248 246 245 243 241 239 239 238 238
337 340 341 339 338 340 350 359 7 7 6 8 7 4 4 4 4 4 5 5 3 0 358 355 349 343 337 328 320 314 305 297 288 279 272 267 261 256 253 251 248 245 243 240 238 236 235 235 235
349 350 349 350 355 4 11 15 14 11 10 10 8 9 11 11 10 9 9 10 10 9 7 4 360 357 353 348 341 333 325 316 305 292 281 273 266 259 254 251 248 244 241 237 234 233 232 232 233
2 1 3 4 10 19 22 23 20 17 16 16 15 15 15 13 13 11 11 11 10 10 11 11 10 7 3 0 357 352 346 341 332 317 299 285 275 264 255 253 248 243 238 235 232 230 230 230 230
11 12 13 16 22 29 29 30 29 27 24 23 21 19 18 17 15 14 13 12 11 11 13 14 14 13 12 9 7 4 360 357 355 349 336 316 295 279 266 260 251 243 237 233 230 229 229 229 228
21 20 22 26 28 32 36 37 36 35 32 28 23 19 18 17 16 14 14 14 15 16 16 15 15 15 15 14 13 10 8 7 6 2 356 345 333 313 291 274 259 247 238 232 229 229 230 229 227
30 30 31 35 37 40 43 43 40 36 31 27 23 20 18 16 15 15 15 15 16 17 17 16 16 15 14 14 14 13 12 11 8 5 3 2 355 339 316 293 271 254 239 231 229 228 227 227 226
44 41 40 41 44 45 44 42 36 33 29 26 23 22 20 18 18 17 17 19 19 18 18 17 17 16 16 17 17 14 12 11 11 10 10 5 1 354 343 321 299 274 250 234 230 227 227 226 225
Height
5935 5934 5934 5934 5934 5933 5932 5931 5930 5929 5929 5928 5927 5926 5925 5925 5925 5925 5923 5921 5920 5920 5920 5919 5918 5918 5917 5916 5916 5915 5915 5915 5914 5914 5913 5913 5913 5912 5912 5911 5911 5910 5910 5909 5908 5908 5907 5907 5907
5935 5935 5936 5936 5935 5934 5933 5931 5930 5929 5929 5928 5927 5927 5926 5925 5923 5922 5921 5921 5920 5920 5920 5919 5919 5918 5918 5917 5917 5916 5916 5915 5915 5915 5914 5914 5913 5913 5912 5912 5911 5910 5910 5909 5908 5907 5906 5906 5905
5937 5936 5937 5937 5935 5934 5933 5932 5931 5930 5928 5928 5927 5927 5926 5925 5923 5921 5921 5920 5920 5919 5919 5919 5919 5918 5918 5918 5917 5917 5916 5916 5915 5915 5915 5914 5914 5913 5913 5912 5911 5911 5910 5909 5908 5907 5906 5905 5905
5939 5938 5938 5938 5935 5934 5933 5932 5931 5930 5929 5928 5928 5927 5926 5925 5923 5921 5920 5919 5919 5918 5918 5918 5918 5918 5917 5917 5917 5916 5916 5915 5915 5915 5914 5914 5914 5913 5913 5912 5912 5911 5910 5909 5908 5907 5906 5905 5905
5939 5939 5939 5936 5935 5934 5932 5931 5931 5931 5930 5928 5927 5926 5925 5925 5923 5920 5919 5918 5918 5917 5917 5916 5916 5916 5916 5916 5916 5916 5915 5915 5914 5914 5914 5913 5913 5913 5913 5912 5912 5911 5910 5909 5909 5908 5907 5906 5905
5939 5938 5938 5936 5935 5933 5933 5931 5930 5930 5929 5927 5926 5925 5924 5923 5922 5920 5918 5916 5915 5915 5914 5914 5914 5913 5913 5913 5913 5913 5913 5913 5913 5913 5912 5912 5912 5912 5912 5912 5911 5911 5910 5910 5909 5908 5907 5906 5905
5940 5938 5937 5936 5935 5934 5932 5930 5929 5927 5926 5926 5924 5923 5921 5920 5919 5918 5917 5915 5913 5912 5912 5911 5910 5910 5910 5910 5910 5910 5910 5910 5910 5910 5910 5910 5910 5910 5910 5910 5910 5910 5910 5909 5909 5908 5907 5906 5906
5939 5938 5936 5935 5934 5932 5930 5929 5927 5925 5924 5923 5922 5920 5919 5917 5916 5915 5914 5913 5911 5909 5908 5907 5907 5906 5906 5905 5905 5905 5905 5905 5906 5906 5906 5907 5907 5907 5907 5908 5908 5908 5908 5908 5908 5908 5907 5907 5906
5937 5937 5935 5934 5932 5930 5927 5927 5925 5923 5922 5920 5919 5917 5916 5914 5913 5911 5910 5909 5908 5906 5905 5903 5902 5902 5901 5901 5900 5900 5900 5900 5901 5901 5902 5903 5903 5904 5904 5904 5905 5906 5906 5907 5907 5907 5907 5906 5906
5936 5935 5933 5932 5931 5928 5926 5925 5922 5920 5919 5917 5915 5914 5912 5910 5909 5907 5905 5904 5903 5902 5900 5899 5898 5897 5896 5895 5895 5895 5895 5895 5896 5897 5897 5898 5899 5899 5900 5900 5901 5902 5903 5904 5904 5905 5905 5905 5905
5933 5932 5931 5929 5927 5925 5922 5920 5918 5916 5914 5912 5910 5908 5907 5905 5903 5902 5900 5898 5897 5895 5894 5893 5892 5891 5891 5890 5889 5890 5890 5890 5890 5891 5892 5893 5894 5894 5895 5896 5897 5898 5899 5900 5901 5902 5902 5903 5904
5930 5928 5927 5925 5923 5920 5918 5915 5913 5911 5908 5906 5903 5901 5900 5898 5896 5895 5893 5891 5889 5888 5886 5885 5884 5884 5884 5884 5884 5884 5884 5884 5884 5885 5886 5887 5888 5889 5889 5890 5891 5892 5893 5895 5896 5897 5899 5900 5901
5926 5924 5923 5921 5918 5915 5913 5910 5908 5905 5902 5899 5896 5894 5892 5890 5888 5886 5884 5882 5881 5879 5877 5876 5875 5875 5875 5875 5876 5877 5877 5878 5878 5879 5879 5880 5881 5882 5883 5883 5885 5886 5887 5889 5890 5892 5894 5896 5897
5923 5921 5919 5917 5914 5912 5909 5906 5903 5899 5896 5893 5889 5886 5884 5882 5880 5877 5875 5872 5870 5868 5867 5866 5865 5865 5865 5865 5866 5867 5869 5870 5871 5871 5872 5873 5874 5875 5876 5877 5878 5879 5880 5882 5884 5886 5888 5890 5892
5919 5917 5915 5912 5910 5908 5905 5902 5898 5893 5889 5885 5881 5878 5876 5873 5870 5868 5865 5863 5861 5859 5857 5856 5856 5855 5855 5855 5856 5857 5858 5860 5861 5863 5864 5865 5866 5867 5869 5870 5871 5872 5874 5875 5877 5879 5882 5884 5886
5915 5913 5911 5907 5905 5902 5901 5896 5892 5887 5883 5878 5874 5870 5867 5864 5861 5859 5856 5854 5852 5850 5848 5847 5846 5846 5845 5845 5845 5846 5847 5848 5850 5852 5854 5856 5857 5858 5860 5862 5864 5865 5867 5869 5870 5872 5874 5876 5879
5911 5908 5905 5902 5899 5896 5894 5890 5886 5881 5876 5872 5867 5864 5860 5856 5853 5850 5848 5845 5843 5841 5839 5838 5837 5836 5836 5836 5835 5835 5836 5837 5838 5840 5843 5845 5847 5849 5851 5853 5855 5858 5860 5861 5863 5864 5867 5869 5872
5907 5904 5900 5897 5894 5891 5888 5884 5880 5876 5871 5866 5862 5858 5854 5850 5847 5843 5840 5838 5835 5833 5831 5830 5828 5827 5826 5826 5826 5826 5826 5826 5827 5829 5831 5833 5836 5838 5840 5843 5845 5848 5851 5853 5855 5857 5859 5861 5864
5903 5900 5897 5893 5890 5886 5883 5880 5876 5872 5867 5862 5857 5853 5849 5844 5840 5837 5834 5831 5828 5826 5824 5822 5820 5818 5817 5817 5816 5816 5816 5816 5816 5817 5819 5822 5824 5826 5829 5832 5834 5837 5841 5844 5846 5849 5851 5854 5857
5900 5897 5893 5890 5886 5882 5879 5876 5872 5868 5863 5858 5854 5849 5845 5840 5836 5832 5828 5825 5822 5819 5816 5814 5812 5810 5809 5808 5807 5806 5806 5806 5806 5806 5808 5810 5812 5815 5818 5821 5824 5826 5830 5834 5837 5840 5843 5846 5849
5897 5893 5890 5886 5882 5878 5875 5872 5869 5865 5860 5855 5851 5846 5841 5836 5832 5828 5824 5820 5817 5813 5810 5808 5805 5804 5802 5800 5799 5798 5797 5796 5796 5796 5797 5798 5801 5803 5806 5809 5812 5815 5819 5823 5827 5830 5834 5837 5841
5894 5890 5886 5882 5878 5875 5872 5870 5866 5861 5857 5852 5847 5843 5838 5834 5830 5825 5821 5817 5814 5810 5806 5803 5800 5798 5796 5794 5792 5790 5788 5787 5786 5786 5786 5787 5789 5791 5794 5797 5801 5804 5807 5811 5816 5820 5824 5828 5832
5892 5888 5884 5880 5876 5873 5870 5867 5864 5859 5854 5850 5846 5841 5837 5833 5828 5824 5820 5816 5812 5808 5804 5800 5797 5794 5791 5788 5786 5783 5781 5780 5778 5777 5777 5777 5778 5780 5783 5785 5788 5792 5796 5800 5804 5809 5814 5818 5823
5890 5886 5882 5879 5876 5873 5869 5865 5861 5857 5853 5850 5846 5841 5837 5833 5828 5824 5820 5816 5812 5807 5803 5799 5795 5791 5788 5784 5781 5779 5776 5774 5772 5770 5769 5769 5769 5770 5772 5774 5777 5780 5784 5788 5793 5798 5803 5808 5813
5888 5886 5882 5878 5874 5871 5868 5864 5861 5857 5854 5850 5846 5842 5837 5833 5829 5825 5821 5816 5812 5807 5803 5798 5794 5790 5786 5782 5779 5776 5773 5770 5767 5764 5763 5762 5761 5762 5762 5764 5766 5769 5773 5777 5782 5787 5792 5797 5802
5887 5884 5881 5878 5873 5870 5867 5863 5862 5858 5854 5851 5847 5843 5838 5834 5830 5826 5821 5817 5813 5808 5803 5799 5794 5790 5785 5781 5777 5774 5770 5767 5764 5761 5758 5756 5755 5755 5755 5756 5757 5759 5762 5766 5771 5776 5782 5787 5792
5886 5883 5880 5876 5873 5870 5867 5865 5862 5858 5855 5852 5848 5844 5840 5835 5831 5827 5822 5818 5814 5809 5804 5800 5795 5790 5785 5781 5777 5773 5769 5765 5762 5758 5756 5753 5751 5750 5749 5749 5750 5751 5753 5757 5761 5766 5771 5776 5781
5886 5882 5879 5876 5873 5870 5868 5865 5863 5859 5856 5853 5849 5845 5841 5837 5832 5828 5824 5819 5815 5810 5805 5801 5796 5791 5787 5782 5778 5773 5769 5765 5761 5758 5755 5752 5749 5747 5746 5745 5745 5745 5746 5749 5753 5757 5761 5766 5771
5886 5883 5879 5877 5874 5871 5869 5868 5864 5861 5857 5853 5850 5846 5842 5838 5834 5829 5825 5820 5816 5811 5807 5802 5797 5793 5788 5783 5778 5774 5770 5766 5761 5758 5754 5751 5748 5746 5744 5743 5742 5741 5742 5744 5746 5749 5753 5757 5762
5886 5883 5881 5878 5875 5872 5870 5871 5865 5861 5858 5854 5851 5847 5843 5839 5835 5831 5826 5822 5817 5813 5808 5804 5799 5794 5789 5784 5779 5775 5771 5766 5762 5758 5754 5751 5748 5746 5744 5742 5740 5739 5739 5740 5742 5744 5747 5751 5755